Location: Kikino
(54.4440°N, 112.0940°W)
Time: 16:00:05
(UTC+00:00)

S-56A Canister/Altair - Pass Details

Date: 28 May 2024
Orbit: 637 x 2489 km, 38.9° (Epoch: 17 June)

Event Time Altitude Azimuth Distance (km) Brightness Sun altitude
Exits shadow 09:36:38 - 181° (S) 5,978 11.5 -9.0°
Reaches altitude 10° 09:42:48 10° 162° (SSE) 5,081 11.3 -8.5°
Maximum altitude 09:48:39 14° 138° (SE) 4,614 11.3 -8.0°
Drops below altitude 10° 09:54:07 10° 113° (ESE) 4,684 11.7 -7.6°
Sets 10:00:04 0° 91° (E) 5,334 12.4 -7.1°
